Койтендаг

Туркменистан     37°30′47″N   66°00′49″E
темп.,
°C
ветер,
м/с
пор.,
м/с
влажн.,
%
обл.,
%
осадки,
мм/ч
давл.,
гПа
погр.,
м
5 марта, пт
пт523:00+12ссз12164932 0.6 1027887
02:00+12сз8105866 0.2 1028833
05:00+11сз786472 0.2 1028479
08:00+9сз68720 0.0 1027315
11:00+12зсз11500 0.0 1025529
14:00+18юв683531 0.0 10211198
17:00+19вюв11123541 0.0 10161076
20:00+17вюв101542100 0.0 1015435
6 марта, сб
сб623:00+15вюв464488 0.0 1014135
02:00+17в6937100 0.2 1011218
05:00+17вюв5831100 0.3 1008154
08:00+16вюв101635100 0.1 1007318
11:00+19вюв12133579 1.6 1010957
14:00+13зюз696778 1.0 1013881
17:00+12з9126189 1.3 10161110
20:00+9зсз6871100 0.1 1021663
7 марта, вс
вс723:00+8з6770100 0.2 1023752
02:00+8сз447197 0.0 1023526
05:00+7з447396 0.0 1023559
08:00+7сз236966 0.0 1023247
11:00+10юв225533 0.0 1022845
14:00+15юв57420 0.0 10191347
17:00+16юв911400 0.0 10161278
20:00+14юв712450 0.0 1016387
8 марта, пн
пн823:00+13юв712470 0.0 1017242
02:00+12вюв58536 0.0 1016123
05:00+11вюв355749 0.0 101679
08:00+12юв5753100 0.0 1018158
11:00+17вюв5636100 0.0 1019742
14:00+19юв4431100 0.0 10181278
17:00+19ю3231100 0.0 10171178
20:00+16юз1143100 0.0 101823
9 марта, вт
вт923:00+15в2344100 0.0 101723
02:00+14юв4645100 0.0 101495
05:00+14ссз2446100 0.0 101258
08:00+16вюв8113098 0.0 1011181
11:00+22вюв11141991 0.0 10101115
14:00+23юв101119100 0.0 10081057
17:00+23вюв81120100 0.0 1007406
20:00+20всв4829100 0.0 1008193